Time,TemperatureF,DewpointF,PressureIn,WindDirection,WindDirectionDegrees,WindSpeedMPH,WindSpeedGustMPH,Humidity,HourlyPrecipIn,Conditions,Clouds,dailyrainin,SoftwareType,DateUTC
2013-06-27 00:03:00,58.9,59.0,29.82,SW,225,4.7,8.4,99,0.00,,,0.00,Rainwise IP-100,2013-06-27 07:03:00,
2013-06-27 00:08:00,58.8,59.0,29.82,SSW,202,4.0,6.8,99,0.00,,,0.00,Rainwise IP-100,2013-06-27 07:08:00,
2013-06-27 00:13:00,58.8,59.0,29.82,SSW,202,7.0,7.0,99,0.00,,,0.00,Rainwise IP-100,2013-06-27 07:13:00,
2013-06-27 00:18:00,58.8,59.0,29.82,WSW,247,3.7,7.5,99,0.00,,,0.00,Rainwise IP-100,2013-06-27 07:18:00,
2013-06-27 00:23:00,58.7,59.0,29.82,WSW,247,4.7,8.2,99,0.00,,,0.00,Rainwise IP-100,2013-06-27 07:23:00,
2013-06-27 00:28:00,58.6,59.0,29.82,SSW,202,4.0,7.0,99,0.00,,,0.00,Rainwise IP-100,2013-06-27 07:28:00,
2013-06-27 00:33:00,58.6,59.0,29.82,SSW,202,3.3,7.2,100,0.00,,,0.00,Rainwise IP-100,2013-06-27 07:33:00,
2013-06-27 00:38:00,58.5,59.0,29.81,SSW,202,3.7,7.2,100,0.00,,,0.00,Rainwise IP-100,2013-06-27 07:38:00,
2013-06-27 00:43:00,58.3,58.0,29.82,SW,225,5.8,8.2,100,0.00,,,0.00,Rainwise IP-100,2013-06-27 07:43:00,
2013-06-27 00:48:00,58.2,58.0,29.82,SSW,202,4.4,6.8,100,0.00,,,0.00,Rainwise IP-100,2013-06-27 07:48:00,
2013-06-27 00:53:00,58.2,58.0,29.81,SW,225,4.4,5.6,100,0.00,,,0.00,Rainwise IP-100,2013-06-27 07:53:00,
2013-06-27 00:58:00,58.4,58.0,29.82,West,270,2.3,7.0,100,0.00,,,0.00,Rainwise IP-100,2013-06-27 07:58:00,
2013-06-27 01:03:00,58.6,59.0,29.81,SW,225,4.4,6.3,100,0.00,,,0.00,Rainwise IP-100,2013-06-27 08:03:00,
2013-06-27 01:08:00,58.8,59.0,29.82,SSW,202,9.1,9.1,100,0.00,,,0.00,Rainwise IP-100,2013-06-27 08:08:00,
2013-06-27 01:13:00,58.8,59.0,29.81,WSW,247,4.2,9.1,100,0.00,,,0.00,Rainwise IP-100,2013-06-27 08:13:00,
2013-06-27 01:18:00,58.9,59.0,29.81,SW,225,4.0,9.6,100,0.00,,,0.00,Rainwise IP-100,2013-06-27 08:18:00,
2013-06-27 01:23:00,58.9,59.0,29.81,SW,225,4.0,8.9,100,0.00,,,0.00,Rainwise IP-100,2013-06-27 08:23:00,
2013-06-27 01:28:00,58.9,59.0,29.81,SSW,202,6.1,8.9,100,0.00,,,0.00,Rainwise IP-100,2013-06-27 08:28:00,
2013-06-27 01:33:00,58.9,59.0,29.82,SSW,202,3.5,7.0,100,0.00,,,0.00,Rainwise IP-100,2013-06-27 08:33:00,
2013-06-27 01:38:00,58.9,59.0,29.81,SW,225,2.8,6.3,100,0.00,,,0.00,Rainwise IP-100,2013-06-27 08:38:00,
2013-06-27 01:43:00,58.9,59.0,29.82,WSW,247,4.9,7.7,100,0.00,,,0.00,Rainwise IP-100,2013-06-27 08:43:00,
2013-06-27 01:48:00,58.7,59.0,29.82,SW,225,6.3,9.1,100,0.00,,,0.00,Rainwise IP-100,2013-06-27 08:48:00,
2013-06-27 01:53:00,58.6,59.0,29.81,WSW,247,4.4,8.6,100,0.00,,,0.00,Rainwise IP-100,2013-06-27 08:53:00,
2013-06-27 01:58:00,58.6,59.0,29.81,WSW,247,3.3,6.8,100,0.00,,,0.00,Rainwise IP-100,2013-06-27 08:58:00,
2013-06-27 02:03:00,58.6,59.0,29.82,SW,225,2.6,6.3,100,0.00,,,0.00,Rainwise IP-100,2013-06-27 09:03:00,
2013-06-27 02:08:00,58.6,59.0,29.81,WSW,247,4.2,6.8,100,0.00,,,0.00,Rainwise IP-100,2013-06-27 09:08:00,
2013-06-27 02:13:00,58.6,59.0,29.81,WSW,247,4.2,7.5,100,0.00,,,0.00,Rainwise IP-100,2013-06-27 09:13:00,
2013-06-27 02:18:00,58.5,59.0,29.81,WSW,247,4.7,7.9,100,0.00,,,0.00,Rainwise IP-100,2013-06-27 09:18:00,
2013-06-27 02:23:00,58.5,59.0,29.81,WSW,247,2.8,5.4,100,0.00,,,0.00,Rainwise IP-100,2013-06-27 09:23:00,
2013-06-27 02:28:00,58.6,59.0,29.81,SW,225,1.6,7.9,100,0.00,,,0.00,Rainwise IP-100,2013-06-27 09:28:00,
2013-06-27 02:33:00,58.5,59.0,29.81,SSW,202,4.4,7.2,100,0.00,,,0.00,Rainwise IP-100,2013-06-27 09:33:00,
2013-06-27 02:38:00,58.5,59.0,29.81,WSW,247,4.9,7.5,100,0.00,,,0.00,Rainwise IP-100,2013-06-27 09:38:00,
2013-06-27 02:43:00,58.4,58.0,29.82,SSW,202,1.9,7.9,100,0.00,,,0.00,Rainwise IP-100,2013-06-27 09:43:00,
2013-06-27 02:49:00,58.2,58.0,29.81,SW,225,5.8,8.6,100,0.00,,,0.00,Rainwise IP-100,2013-06-27 09:49:00,
2013-06-27 02:54:00,58.2,58.0,29.81,SW,225,4.4,7.9,100,0.00,,,0.00,Rainwise IP-100,2013-06-27 09:54:00,
2013-06-27 02:59:00,58.2,58.0,29.81,SSW,202,4.2,6.5,100,0.00,,,0.00,Rainwise IP-100,2013-06-27 09:59:00,
2013-06-27 03:04:00,58.2,58.0,29.81,SSW,202,1.6,6.3,100,0.00,,,0.00,Rainwise IP-100,2013-06-27 10:04:00,
2013-06-27 03:09:00,58.2,58.0,29.81,WSW,247,3.3,6.3,100,0.00,,,0.00,Rainwise IP-100,2013-06-27 10:09:00,
2013-06-27 03:14:00,58.2,58.0,29.81,SSW,202,4.9,7.0,100,0.00,,,0.00,Rainwise IP-100,2013-06-27 10:14:00,
2013-06-27 03:19:00,58.1,58.0,29.81,SSE,157,2.8,7.5,100,0.00,,,0.00,Rainwise IP-100,2013-06-27 10:19:00,
2013-06-27 03:24:00,58.1,58.0,29.81,SW,225,2.3,5.8,100,0.00,,,0.00,Rainwise IP-100,2013-06-27 10:24:00,
2013-06-27 03:29:00,58.0,58.0,29.81,SW,225,3.0,4.7,100,0.00,,,0.00,Rainwise IP-100,2013-06-27 10:29:00,
2013-06-27 03:34:00,57.9,58.0,29.81,SSW,202,0.0,4.7,100,0.00,,,0.00,Rainwise IP-100,2013-06-27 10:34:00,
2013-06-27 03:39:00,57.8,58.0,29.81,West,270,2.1,3.0,100,0.00,,,0.00,Rainwise IP-100,2013-06-27 10:39:00,
2013-06-27 03:44:00,57.8,58.0,29.81,West,270,2.6,3.0,100,0.00,,,0.00,Rainwise IP-100,2013-06-27 10:44:00,
2013-06-27 03:49:00,57.8,58.0,29.80,West,270,1.4,2.6,100,0.00,,,0.00,Rainwise IP-100,2013-06-27 10:49:00,
2013-06-27 03:54:00,57.7,57.5,29.80,WSW,247,1.2,2.8,100,0.00,,,0.00,Rainwise IP-100,2013-06-27 10:54:00,
2013-06-27 03:59:00,57.6,57.5,29.80,WSW,247,0.0,2.1,100,0.00,,,0.00,Rainwise IP-100,2013-06-27 10:59:00,
2013-06-27 04:04:00,57.5,57.5,29.80,WSW,247,0.0,2.1,100,0.00,,,0.00,Rainwise IP-100,2013-06-27 11:04:00,
2013-06-27 04:09:00,57.5,57.5,29.80,WSW,247,1.4,2.3,100,0.00,,,0.00,Rainwise IP-100,2013-06-27 11:09:00,
2013-06-27 04:14:00,57.5,57.5,29.81,West,270,1.4,2.8,100,0.00,,,0.00,Rainwise IP-100,2013-06-27 11:14:00,
2013-06-27 04:19:00,57.5,57.5,29.80,West,270,2.1,2.8,100,0.00,,,0.00,Rainwise IP-100,2013-06-27 11:19:00,
2013-06-27 04:24:00,57.5,57.5,29.81,SW,225,2.6,3.5,100,0.00,,,0.00,Rainwise IP-100,2013-06-27 11:24:00,
2013-06-27 04:29:00,57.4,57.5,29.81,SW,225,0.0,3.7,100,0.00,,,0.00,Rainwise IP-100,2013-06-27 11:29:00,
2013-06-27 04:32:00,57.4,57.5,29.81,SW,225,1.4,2.8,100,0.00,,,0.00,Rainwise IP-100,2013-06-27 11:32:00,
2013-06-27 04:36:00,57.3,57.5,29.81,WSW,247,1.6,3.0,100,0.00,,,0.00,Rainwise IP-100,2013-06-27 11:36:00,
2013-06-27 04:41:00,57.2,57.0,29.81,WSW,247,1.6,3.0,100,0.00,,,0.00,Rainwise IP-100,2013-06-27 11:41:00,
2013-06-27 04:46:00,57.3,57.5,29.80,WSW,247,0.0,2.1,100,0.00,,,0.00,Rainwise IP-100,2013-06-27 11:46:00,
2013-06-27 04:51:00,57.4,57.5,29.80,WSW,247,0.0,1.6,100,0.00,,,0.00,Rainwise IP-100,2013-06-27 11:51:00,
2013-06-27 04:56:00,57.3,57.5,29.81,WSW,247,0.0,0.0,100,0.00,,,0.00,Rainwise IP-100,2013-06-27 11:56:00,
2013-06-27 05:01:00,57.2,57.0,29.80,WSW,247,0.0,1.4,100,0.00,,,0.00,Rainwise IP-100,2013-06-27 12:01:00,
2013-06-27 05:06:00,57.2,57.0,29.80,WSW,247,2.1,2.3,100,0.00,,,0.00,Rainwise IP-100,2013-06-27 12:06:00,
2013-06-27 05:11:00,57.2,57.0,29.81,WSW,247,1.9,3.5,100,0.00,,,0.00,Rainwise IP-100,2013-06-27 12:11:00,
2013-06-27 05:16:00,57.2,57.0,29.80,WSW,247,0.0,3.3,100,0.00,,,0.00,Rainwise IP-100,2013-06-27 12:16:00,
2013-06-27 05:21:00,57.2,57.0,29.81,WSW,247,2.1,3.3,100,0.00,,,0.00,Rainwise IP-100,2013-06-27 12:21:00,
2013-06-27 05:26:00,57.2,57.0,29.81,WSW,247,2.1,2.8,100,0.00,,,0.00,Rainwise IP-100,2013-06-27 12:26:00,
2013-06-27 05:31:00,57.2,57.0,29.81,West,270,2.1,3.0,100,0.00,,,0.00,Rainwise IP-100,2013-06-27 12:31:00,
2013-06-27 05:36:00,57.2,57.0,29.81,West,270,1.9,2.8,100,0.00,,,0.00,Rainwise IP-100,2013-06-27 12:36:00,
2013-06-27 05:41:00,57.2,57.0,29.81,West,270,2.8,3.3,100,0.00,,,0.00,Rainwise IP-100,2013-06-27 12:41:00,
2013-06-27 05:46:00,57.2,57.0,29.81,West,270,2.3,3.0,100,0.00,,,0.00,Rainwise IP-100,2013-06-27 12:46:00,
2013-06-27 05:51:00,57.1,57.0,29.81,WSW,247,1.2,2.8,100,0.00,,,0.00,Rainwise IP-100,2013-06-27 12:51:00,
2013-06-27 05:56:00,57.0,57.0,29.81,WSW,247,2.3,2.6,100,0.00,,,0.00,Rainwise IP-100,2013-06-27 12:56:00,
2013-06-27 06:01:00,56.9,57.0,29.81,WSW,247,2.6,3.5,100,0.00,,,0.00,Rainwise IP-100,2013-06-27 13:01:00,
2013-06-27 06:06:00,56.8,57.0,29.81,SW,225,3.3,3.7,100,0.00,,,0.00,Rainwise IP-100,2013-06-27 13:06:00,
2013-06-27 06:11:00,56.5,56.5,29.81,WSW,247,2.3,4.2,100,0.00,,,0.00,Rainwise IP-100,2013-06-27 13:11:00,
2013-06-27 06:16:00,56.3,56.5,29.81,WSW,247,1.6,3.0,100,0.00,,,0.00,Rainwise IP-100,2013-06-27 13:16:00,
2013-06-27 06:21:00,56.3,56.5,29.81,WSW,247,0.0,3.5,100,0.00,,,0.00,Rainwise IP-100,2013-06-27 13:21:00,
2013-06-27 06:26:00,56.2,56.0,29.81,SW,225,2.3,5.1,100,0.00,,,0.00,Rainwise IP-100,2013-06-27 13:26:00,
2013-06-27 06:31:00,56.1,56.0,29.82,SW,225,0.0,4.9,100,0.00,,,0.00,Rainwise IP-100,2013-06-27 13:31:00,
2013-06-27 06:36:00,55.9,56.0,29.81,WSW,247,3.0,4.2,100,0.00,,,0.00,Rainwise IP-100,2013-06-27 13:36:00,
2013-06-27 06:41:00,55.9,56.0,29.81,West,270,1.2,3.3,100,0.00,,,0.00,Rainwise IP-100,2013-06-27 13:41:00,
2013-06-27 06:46:00,55.9,56.0,29.82,West,270,1.4,2.6,100,0.00,,,0.00,Rainwise IP-100,2013-06-27 13:46:00,
2013-06-27 06:51:00,55.9,56.0,29.81,West,270,0.0,1.9,100,0.00,,,0.00,Rainwise IP-100,2013-06-27 13:51:00,
2013-06-27 06:56:00,56.0,56.0,29.82,West,270,0.0,1.2,100,0.00,,,0.00,Rainwise IP-100,2013-06-27 13:56:00,
2013-06-27 07:01:00,56.4,56.5,29.82,West,270,0.0,0.0,100,0.00,,,0.00,Rainwise IP-100,2013-06-27 14:01:00,
2013-06-27 07:06:00,56.9,57.0,29.82,West,270,0.0,0.0,100,0.00,,,0.00,Rainwise IP-100,2013-06-27 14:06:00,
2013-06-27 07:11:00,57.3,57.5,29.82,West,270,0.0,0.0,100,0.00,,,0.00,Rainwise IP-100,2013-06-27 14:11:00,
2013-06-27 07:16:00,58.0,58.0,29.82,West,270,0.0,0.0,100,0.00,,,0.00,Rainwise IP-100,2013-06-27 14:16:00,
2013-06-27 07:21:00,58.8,59.0,29.83,WNW,292,0.0,0.0,100,0.00,,,0.00,Rainwise IP-100,2013-06-27 14:21:00,
2013-06-27 07:26:00,59.4,59.5,29.83,WNW,292,1.9,2.1,100,0.00,,,0.00,Rainwise IP-100,2013-06-27 14:26:00,
2013-06-27 07:31:00,59.3,59.5,29.83,WNW,292,1.2,1.9,100,0.00,,,0.00,Rainwise IP-100,2013-06-27 14:31:00,
2013-06-27 07:36:00,59.3,59.5,29.83,WNW,292,1.2,2.1,100,0.00,,,0.00,Rainwise IP-100,2013-06-27 14:36:00,
2013-06-27 07:41:00,59.7,59.5,29.83,WNW,292,1.4,1.4,100,0.00,,,0.00,Rainwise IP-100,2013-06-27 14:41:00,
2013-06-27 07:46:00,60.2,60.0,29.83,NW,315,0.0,2.1,100,0.00,,,0.00,Rainwise IP-100,2013-06-27 14:46:00,
2013-06-27 07:51:00,61.2,61.0,29.83,NNW,337,0.0,0.0,100,0.00,,,0.00,Rainwise IP-100,2013-06-27 14:51:00,
2013-06-27 07:56:00,61.8,62.0,29.83,NNW,337,0.0,0.0,100,0.00,,,0.00,Rainwise IP-100,2013-06-27 14:56:00,
2013-06-27 08:01:00,62.4,62.5,29.84,WNW,292,0.0,1.4,100,0.00,,,0.00,Rainwise IP-100,2013-06-27 15:01:00,
2013-06-27 08:06:00,62.4,62.5,29.83,WNW,292,1.6,2.1,100,0.00,,,0.00,Rainwise IP-100,2013-06-27 15:06:00,
2013-06-27 08:11:00,61.6,61.5,29.84,SSW,202,3.3,4.9,100,0.00,,,0.00,Rainwise IP-100,2013-06-27 15:11:00,
2013-06-27 08:16:00,61.2,61.0,29.84,SW,225,2.8,4.9,100,0.00,,,0.00,Rainwise IP-100,2013-06-27 15:16:00,
2013-06-27 08:21:00,60.9,60.5,29.84,WSW,247,3.3,4.7,99,0.00,,,0.00,Rainwise IP-100,2013-06-27 15:21:00,
2013-06-27 08:26:00,61.0,60.5,29.84,WSW,247,5.1,5.6,99,0.00,,,0.00,Rainwise IP-100,2013-06-27 15:26:00,
2013-06-27 08:31:00,60.7,60.0,29.84,SSW,202,2.3,6.1,98,0.00,,,0.00,Rainwise IP-100,2013-06-27 15:31:00,
2013-06-27 08:36:00,60.5,60.0,29.84,SW,225,4.4,6.5,98,0.00,,,0.00,Rainwise IP-100,2013-06-27 15:36:00,
2013-06-27 08:41:00,60.2,59.0,29.85,WSW,247,2.6,6.5,97,0.00,,,0.00,Rainwise IP-100,2013-06-27 15:41:00,
2013-06-27 08:46:00,60.0,59.0,29.85,SW,225,3.7,6.3,96,0.00,,,0.00,Rainwise IP-100,2013-06-27 15:46:00,
2013-06-27 08:51:00,60.1,58.0,29.85,WSW,247,2.3,4.9,95,0.00,,,0.00,Rainwise IP-100,2013-06-27 15:51:00,
2013-06-27 08:56:00,60.6,59.0,29.85,WNW,292,2.8,7.0,94,0.00,,,0.00,Rainwise IP-100,2013-06-27 15:56:00,
2013-06-27 09:01:00,61.6,59.5,29.85,SW,225,2.8,5.8,93,0.00,,,0.00,Rainwise IP-100,2013-06-27 16:01:00,
2013-06-27 09:06:00,62.7,60.0,29.84,West,270,5.8,7.2,92,0.00,,,0.00,Rainwise IP-100,2013-06-27 16:06:00,
2013-06-27 09:11:00,63.2,60.0,29.85,West,270,7.0,8.2,90,0.00,,,0.00,Rainwise IP-100,2013-06-27 16:11:00,
2013-06-27 09:16:00,63.2,60.0,29.84,WNW,292,4.7,7.9,89,0.00,,,0.00,Rainwise IP-100,2013-06-27 16:16:00,
2013-06-27 09:21:00,63.2,60.0,29.84,WSW,247,3.7,8.2,89,0.00,,,0.00,Rainwise IP-100,2013-06-27 16:21:00,
2013-06-27 09:26:00,63.4,60.0,29.84,WSW,247,4.9,7.5,88,0.00,,,0.00,Rainwise IP-100,2013-06-27 16:26:00,
2013-06-27 09:31:00,63.8,60.5,29.84,SW,225,5.8,7.5,88,0.00,,,0.00,Rainwise IP-100,2013-06-27 16:31:00,
2013-06-27 09:36:00,64.3,60.5,29.84,West,270,3.5,8.4,87,0.00,,,0.00,Rainwise IP-100,2013-06-27 16:36:00,
2013-06-27 09:41:00,64.3,60.0,29.84,West,270,5.4,10.3,86,0.00,,,0.00,Rainwise IP-100,2013-06-27 16:41:00,
2013-06-27 09:46:00,64.1,60.0,29.85,SSW,202,4.4,9.6,86,0.00,,,0.00,Rainwise IP-100,2013-06-27 16:46:00,
2013-06-27 09:51:00,64.2,59.5,29.85,WSW,247,3.3,8.4,85,0.00,,,0.00,Rainwise IP-100,2013-06-27 16:51:00,
2013-06-27 09:56:00,64.3,60.0,29.84,SW,225,4.0,9.6,85,0.00,,,0.00,Rainwise IP-100,2013-06-27 16:56:00,
2013-06-27 10:01:00,64.3,60.0,29.84,SSW,202,3.5,9.8,85,0.00,,,0.00,Rainwise IP-100,2013-06-27 17:01:00,
2013-06-27 10:06:00,64.5,60.0,29.85,WSW,247,1.6,9.3,86,0.00,,,0.00,Rainwise IP-100,2013-06-27 17:06:00,
2013-06-27 10:11:00,64.3,60.0,29.84,SW,225,8.2,11.0,85,0.00,,,0.00,Rainwise IP-100,2013-06-27 17:11:00,
2013-06-27 10:16:00,63.6,59.5,29.84,WSW,247,4.0,10.5,86,0.00,,,0.00,Rainwise IP-100,2013-06-27 17:16:00,
2013-06-27 10:21:00,63.4,59.5,29.84,SW,225,7.0,9.1,86,0.00,,,0.00,Rainwise IP-100,2013-06-27 17:21:00,
2013-06-27 10:26:00,63.4,59.0,29.84,WNW,292,6.8,10.0,85,0.00,,,0.00,Rainwise IP-100,2013-06-27 17:26:00,
2013-06-27 10:31:00,62.6,57.5,29.85,SW,225,6.8,10.5,85,0.00,,,0.00,Rainwise IP-100,2013-06-27 17:31:00,
2013-06-27 10:36:00,62.1,57.5,29.85,WSW,247,6.5,11.0,86,0.00,,,0.00,Rainwise IP-100,2013-06-27 17:36:00,
2013-06-27 10:41:00,62.0,58.0,29.85,SW,225,3.7,12.6,87,0.00,,,0.00,Rainwise IP-100,2013-06-27 17:41:00,
2013-06-27 10:46:00,62.2,58.0,29.86,West,270,4.9,11.2,87,0.00,,,0.00,Rainwise IP-100,2013-06-27 17:46:00,
2013-06-27 10:51:00,62.4,58.0,29.85,SSW,202,6.3,12.6,86,0.00,,,0.00,Rainwise IP-100,2013-06-27 17:51:00,
2013-06-27 10:56:00,62.2,57.5,29.86,SSW,202,8.4,10.5,86,0.00,,,0.00,Rainwise IP-100,2013-06-27 17:56:00,
2013-06-27 11:01:00,62.2,57.5,29.85,SSW,202,5.1,11.0,86,0.00,,,0.00,Rainwise IP-100,2013-06-27 18:01:00,
2013-06-27 11:06:00,62.0,57.5,29.86,SW,225,5.4,10.3,86,0.00,,,0.00,Rainwise IP-100,2013-06-27 18:06:00,
2013-06-27 11:11:00,61.8,57.5,29.86,WSW,247,4.0,10.5,86,0.00,,,0.00,Rainwise IP-100,2013-06-27 18:11:00,
2013-06-27 11:16:00,61.9,57.5,29.86,SW,225,7.7,11.9,86,0.00,,,0.00,Rainwise IP-100,2013-06-27 18:16:00,
2013-06-27 11:21:00,61.3,57.5,29.87,SW,225,5.1,14.0,87,0.00,,,0.00,Rainwise IP-100,2013-06-27 18:21:00,
2013-06-27 11:26:00,61.0,57.0,29.86,SSW,202,8.9,11.7,87,0.00,,,0.00,Rainwise IP-100,2013-06-27 18:26:00,
2013-06-27 11:31:00,61.5,57.5,29.86,SW,225,4.0,10.3,87,0.00,,,0.00,Rainwise IP-100,2013-06-27 18:31:00,
2013-06-27 11:36:00,62.0,58.0,29.86,SSW,202,8.9,11.4,87,0.00,,,0.00,Rainwise IP-100,2013-06-27 18:36:00,
2013-06-27 11:41:00,62.0,58.0,29.87,WSW,247,7.2,14.2,87,0.00,,,0.00,Rainwise IP-100,2013-06-27 18:41:00,
2013-06-27 11:46:00,61.9,58.0,29.86,SSW,202,9.3,12.8,87,0.00,,,0.00,Rainwise IP-100,2013-06-27 18:46:00,
2013-06-27 11:51:00,62.4,59.0,29.86,SW,225,4.9,11.4,87,0.00,,,0.00,Rainwise IP-100,2013-06-27 18:51:00,
2013-06-27 11:56:00,62.8,59.0,29.86,WSW,247,5.4,12.6,87,0.00,,,0.00,Rainwise IP-100,2013-06-27 18:56:00,
2013-06-27 12:01:00,63.5,59.5,29.86,West,270,5.6,10.7,86,0.00,,,0.00,Rainwise IP-100,2013-06-27 19:01:00,
2013-06-27 12:06:00,63.5,59.0,29.86,SW,225,4.0,11.4,85,0.00,,,0.00,Rainwise IP-100,2013-06-27 19:06:00,
2013-06-27 12:11:00,63.0,58.0,29.86,South,180,6.3,13.5,85,0.00,,,0.00,Rainwise IP-100,2013-06-27 19:11:00,
2013-06-27 12:16:00,63.0,58.0,29.86,WSW,247,9.1,11.9,85,0.00,,,0.00,Rainwise IP-100,2013-06-27 19:16:00,
2013-06-27 12:21:00,63.0,58.0,29.86,WSW,247,11.0,14.2,85,0.00,,,0.00,Rainwise IP-100,2013-06-27 19:21:00,
2013-06-27 12:26:00,63.0,58.0,29.86,SW,225,8.4,11.4,85,0.00,,,0.00,Rainwise IP-100,2013-06-27 19:26:00,
2013-06-27 12:31:00,63.2,58.0,29.86,WSW,247,7.7,12.6,85,0.00,,,0.00,Rainwise IP-100,2013-06-27 19:31:00,
2013-06-27 12:36:00,63.5,59.0,29.86,SSW,202,5.8,11.2,85,0.00,,,0.00,Rainwise IP-100,2013-06-27 19:36:00,
2013-06-27 12:41:00,63.9,59.0,29.86,SW,225,3.5,11.7,84,0.00,,,0.00,Rainwise IP-100,2013-06-27 19:41:00,
2013-06-27 12:46:00,64.3,59.5,29.85,SW,225,5.6,10.3,84,0.00,,,0.00,Rainwise IP-100,2013-06-27 19:46:00,
2013-06-27 12:51:00,64.6,59.5,29.86,WSW,247,5.1,10.5,83,0.00,,,0.00,Rainwise IP-100,2013-06-27 19:51:00,
2013-06-27 12:56:00,64.8,59.5,29.86,SSW,202,5.4,10.3,83,0.00,,,0.00,Rainwise IP-100,2013-06-27 19:56:00,
2013-06-27 13:01:00,65.2,59.5,29.86,South,180,4.2,12.4,82,0.00,,,0.00,Rainwise IP-100,2013-06-27 20:01:00,
2013-06-27 13:06:00,65.8,60.0,29.86,SSW,202,8.6,9.1,81,0.00,,,0.00,Rainwise IP-100,2013-06-27 20:06:00,
2013-06-27 13:11:00,65.3,59.5,29.86,SW,225,4.2,11.9,81,0.00,,,0.00,Rainwise IP-100,2013-06-27 20:11:00,
2013-06-27 13:16:00,64.9,59.0,29.86,SW,225,5.4,14.0,81,0.00,,,0.00,Rainwise IP-100,2013-06-27 20:16:00,
2013-06-27 13:21:00,65.4,60.0,29.86,WSW,247,5.6,13.1,82,0.00,,,0.00,Rainwise IP-100,2013-06-27 20:21:00,
2013-06-27 13:26:00,65.5,60.0,29.86,SW,225,8.4,10.5,82,0.00,,,0.00,Rainwise IP-100,2013-06-27 20:26:00,
2013-06-27 13:31:00,65.4,59.5,29.86,WSW,247,10.0,13.1,81,0.00,,,0.00,Rainwise IP-100,2013-06-27 20:31:00,
2013-06-27 13:36:00,65.6,59.5,29.86,SSW,202,5.6,12.8,81,0.00,,,0.00,Rainwise IP-100,2013-06-27 20:36:00,
2013-06-27 13:41:00,65.8,60.0,29.86,SW,225,7.5,13.5,81,0.00,,,0.00,Rainwise IP-100,2013-06-27 20:41:00,
2013-06-27 13:46:00,66.2,60.5,29.85,SW,225,7.9,12.8,81,0.00,,,0.00,Rainwise IP-100,2013-06-27 20:46:00,
2013-06-27 13:51:00,66.0,60.0,29.85,SSW,202,3.3,15.2,81,0.00,,,0.00,Rainwise IP-100,2013-06-27 20:51:00,
2013-06-27 13:56:00,65.8,59.5,29.85,WSW,247,6.5,13.3,80,0.00,,,0.00,Rainwise IP-100,2013-06-27 20:56:00,
2013-06-27 14:01:00,66.0,59.5,29.85,WSW,247,4.2,12.8,80,0.00,,,0.00,Rainwise IP-100,2013-06-27 21:01:00,
2013-06-27 14:06:00,65.8,59.5,29.85,SW,225,4.9,14.5,80,0.00,,,0.00,Rainwise IP-100,2013-06-27 21:06:00,
2013-06-27 14:11:00,65.8,60.0,29.85,SSW,202,7.0,14.7,81,0.00,,,0.00,Rainwise IP-100,2013-06-27 21:11:00,
2013-06-27 14:16:00,66.2,60.5,29.85,SW,225,1.4,12.8,81,0.00,,,0.00,Rainwise IP-100,2013-06-27 21:16:00,
2013-06-27 14:21:00,66.3,60.0,29.84,SSW,202,3.3,13.5,80,0.00,,,0.00,Rainwise IP-100,2013-06-27 21:21:00,
2013-06-27 14:26:00,66.7,60.5,29.85,SW,225,5.1,11.0,80,0.00,,,0.00,Rainwise IP-100,2013-06-27 21:26:00,
2013-06-27 14:31:00,66.8,60.0,29.84,SSW,202,8.4,13.1,79,0.00,,,0.00,Rainwise IP-100,2013-06-27 21:31:00,
2013-06-27 14:36:00,66.5,60.0,29.84,SSW,202,3.7,11.0,79,0.00,,,0.00,Rainwise IP-100,2013-06-27 21:36:00,
2013-06-27 14:41:00,66.3,59.5,29.84,SSW,202,5.8,11.4,79,0.00,,,0.00,Rainwise IP-100,2013-06-27 21:41:00,
2013-06-27 14:46:00,66.5,60.0,29.84,WSW,247,4.2,14.5,79,0.00,,,0.00,Rainwise IP-100,2013-06-27 21:46:00,
2013-06-27 14:51:00,66.8,60.0,29.84,WSW,247,5.1,12.6,79,0.00,,,0.00,Rainwise IP-100,2013-06-27 21:51:00,
2013-06-27 14:56:00,67.0,60.5,29.84,West,270,8.2,13.1,79,0.00,,,0.00,Rainwise IP-100,2013-06-27 21:56:00,
2013-06-27 15:01:00,67.2,60.0,29.84,SW,225,6.3,12.8,78,0.00,,,0.00,Rainwise IP-100,2013-06-27 22:01:00,
2013-06-27 15:06:00,67.7,60.0,29.84,WSW,247,6.5,13.8,77,0.00,,,0.00,Rainwise IP-100,2013-06-27 22:06:00,
2013-06-27 15:11:00,67.6,60.0,29.84,WSW,247,5.1,14.0,77,0.00,,,0.00,Rainwise IP-100,2013-06-27 22:11:00,
2013-06-27 15:16:00,67.2,60.0,29.84,South,180,7.2,12.8,77,0.00,,,0.00,Rainwise IP-100,2013-06-27 22:16:00,
2013-06-27 15:21:00,67.4,60.0,29.84,WSW,247,4.7,11.2,77,0.00,,,0.00,Rainwise IP-100,2013-06-27 22:21:00,
2013-06-27 15:26:00,67.7,60.0,29.84,SW,225,3.7,15.6,76,0.00,,,0.00,Rainwise IP-100,2013-06-27 22:26:00,
2013-06-27 15:31:00,68.0,60.0,29.84,WSW,247,8.6,13.1,76,0.00,,,0.00,Rainwise IP-100,2013-06-27 22:31:00,
2013-06-27 15:36:00,68.1,60.0,29.84,WSW,247,10.3,14.2,76,0.00,,,0.00,Rainwise IP-100,2013-06-27 22:36:00,
2013-06-27 15:41:00,67.7,60.0,29.83,SSW,202,7.2,13.5,76,0.00,,,0.00,Rainwise IP-100,2013-06-27 22:41:00,
2013-06-27 15:46:00,67.8,60.0,29.83,SSW,202,4.7,13.8,76,0.00,,,0.00,Rainwise IP-100,2013-06-27 22:46:00,
2013-06-27 15:51:00,67.7,60.0,29.83,WSW,247,7.7,14.7,76,0.00,,,0.00,Rainwise IP-100,2013-06-27 22:51:00,
2013-06-27 15:56:00,67.5,60.0,29.83,SW,225,10.0,15.6,76,0.00,,,0.00,Rainwise IP-100,2013-06-27 22:56:00,
2013-06-27 16:01:00,68.1,60.0,29.83,WSW,247,6.3,13.8,76,0.00,,,0.00,Rainwise IP-100,2013-06-27 23:01:00,
2013-06-27 16:06:00,68.5,60.5,29.83,West,270,3.3,13.1,75,0.00,,,0.00,Rainwise IP-100,2013-06-27 23:06:00,
2013-06-27 16:11:00,68.6,60.0,29.83,WSW,247,4.4,13.1,74,0.00,,,0.00,Rainwise IP-100,2013-06-27 23:11:00,
2013-06-27 16:16:00,68.5,60.0,29.83,SSW,202,7.7,16.6,74,0.00,,,0.00,Rainwise IP-100,2013-06-27 23:16:00,
2013-06-27 16:21:00,68.3,60.0,29.83,SSW,202,9.8,14.9,74,0.00,,,0.00,Rainwise IP-100,2013-06-27 23:21:00,
2013-06-27 16:26:00,68.4,60.0,29.83,SSW,202,10.3,14.9,74,0.00,,,0.00,Rainwise IP-100,2013-06-27 23:26:00,
2013-06-27 16:31:00,68.7,60.0,29.82,WSW,247,4.2,13.8,74,0.00,,,0.00,Rainwise IP-100,2013-06-27 23:31:00,
2013-06-27 16:36:00,69.1,60.0,29.82,SW,225,4.9,12.4,73,0.00,,,0.00,Rainwise IP-100,2013-06-27 23:36:00,
2013-06-27 16:41:00,69.5,60.5,29.82,SSW,202,3.7,10.7,72,0.00,,,0.00,Rainwise IP-100,2013-06-27 23:41:00,
2013-06-27 16:46:00,69.5,60.5,29.82,SSW,202,10.0,15.2,72,0.00,,,0.00,Rainwise IP-100,2013-06-27 23:46:00,
2013-06-27 16:51:00,69.3,60.0,29.82,SW,225,6.8,12.4,72,0.00,,,0.00,Rainwise IP-100,2013-06-27 23:51:00,
2013-06-27 16:56:00,69.2,60.0,29.81,WSW,247,3.3,13.5,72,0.00,,,0.00,Rainwise IP-100,2013-06-27 23:56:00,
2013-06-27 17:01:00,69.0,59.5,29.82,SSW,202,4.0,11.7,72,0.00,,,0.00,Rainwise IP-100,2013-06-28 00:01:00,
2013-06-27 17:06:00,69.0,59.5,29.81,SSW,202,7.5,15.4,72,0.00,,,0.00,Rainwise IP-100,2013-06-28 00:06:00,
2013-06-27 17:11:00,69.0,59.5,29.81,SSW,202,5.6,13.5,72,0.00,,,0.00,Rainwise IP-100,2013-06-28 00:11:00,
2013-06-27 17:16:00,69.4,59.5,29.81,SSW,202,11.9,12.1,71,0.00,,,0.00,Rainwise IP-100,2013-06-28 00:16:00,
2013-06-27 17:21:00,69.1,59.0,29.81,SW,225,7.0,13.3,71,0.00,,,0.00,Rainwise IP-100,2013-06-28 00:21:00,
2013-06-27 17:26:00,68.8,59.5,29.81,SW,225,6.5,12.4,72,0.00,,,0.00,Rainwise IP-100,2013-06-28 00:26:00,
2013-06-27 17:31:00,69.1,59.5,29.81,SW,225,6.8,14.0,72,0.00,,,0.00,Rainwise IP-100,2013-06-28 00:31:00,
2013-06-27 17:36:00,69.1,59.0,29.81,SW,225,8.4,15.2,71,0.00,,,0.00,Rainwise IP-100,2013-06-28 00:36:00,
2013-06-27 17:41:00,69.0,59.0,29.81,SW,225,6.3,14.7,71,0.00,,,0.00,Rainwise IP-100,2013-06-28 00:41:00,
2013-06-27 17:46:00,68.7,59.0,29.81,SW,225,10.0,13.5,71,0.00,,,0.00,Rainwise IP-100,2013-06-28 00:46:00,
2013-06-27 17:51:00,68.3,59.0,29.80,SW,225,5.6,13.5,72,0.00,,,0.00,Rainwise IP-100,2013-06-28 00:51:00,
2013-06-27 17:56:00,67.9,59.0,29.81,SW,225,6.3,14.9,73,0.00,,,0.00,Rainwise IP-100,2013-06-28 00:56:00,
2013-06-27 18:01:00,67.6,59.0,29.81,SW,225,5.6,14.2,73,0.00,,,0.00,Rainwise IP-100,2013-06-28 01:01:00,
2013-06-27 18:06:00,67.5,59.0,29.80,SSW,202,9.8,14.2,73,0.00,,,0.00,Rainwise IP-100,2013-06-28 01:06:00,
2013-06-27 18:11:00,67.4,59.0,29.80,WSW,247,8.6,13.3,74,0.00,,,0.00,Rainwise IP-100,2013-06-28 01:11:00,
2013-06-27 18:16:00,67.4,59.0,29.80,SW,225,4.2,11.9,74,0.00,,,0.00,Rainwise IP-100,2013-06-28 01:16:00,
2013-06-27 18:21:00,67.3,59.0,29.80,SSW,202,8.2,12.4,74,0.00,,,0.00,Rainwise IP-100,2013-06-28 01:21:00,
2013-06-27 18:26:00,66.9,59.0,29.80,SW,225,8.6,16.8,74,0.00,,,0.00,Rainwise IP-100,2013-06-28 01:26:00,
2013-06-27 18:31:00,66.4,58.0,29.80,SSW,202,6.1,14.2,75,0.00,,,0.00,Rainwise IP-100,2013-06-28 01:31:00,
2013-06-27 18:36:00,66.4,58.0,29.80,SW,225,10.5,15.4,76,0.00,,,0.00,Rainwise IP-100,2013-06-28 01:36:00,
2013-06-27 18:41:00,66.3,58.0,29.80,SW,225,6.8,13.1,76,0.00,,,0.00,Rainwise IP-100,2013-06-28 01:41:00,
2013-06-27 18:46:00,65.9,58.0,29.80,WSW,247,7.0,14.0,76,0.00,,,0.00,Rainwise IP-100,2013-06-28 01:46:00,
2013-06-27 18:51:00,65.8,58.0,29.80,SW,225,13.5,14.5,77,0.00,,,0.00,Rainwise IP-100,2013-06-28 01:51:00,
2013-06-27 18:56:00,65.5,58.0,29.80,SSW,202,11.4,13.5,77,0.00,,,0.00,Rainwise IP-100,2013-06-28 01:56:00,
2013-06-27 19:01:00,65.3,58.0,29.80,SSW,202,6.8,14.5,78,0.00,,,0.00,Rainwise IP-100,2013-06-28 02:01:00,
2013-06-27 19:06:00,65.1,57.5,29.80,SW,225,10.7,12.8,78,0.00,,,0.00,Rainwise IP-100,2013-06-28 02:06:00,
2013-06-27 19:11:00,64.9,57.5,29.80,WSW,247,4.2,14.7,78,0.00,,,0.00,Rainwise IP-100,2013-06-28 02:11:00,
2013-06-27 19:16:00,64.9,58.0,29.79,SSW,202,8.6,12.1,79,0.00,,,0.00,Rainwise IP-100,2013-06-28 02:16:00,
2013-06-27 19:21:00,64.8,58.0,29.79,SSW,202,6.8,13.5,79,0.00,,,0.00,Rainwise IP-100,2013-06-28 02:21:00,
2013-06-27 19:26:00,64.3,57.5,29.79,WSW,247,13.8,13.8,79,0.00,,,0.00,Rainwise IP-100,2013-06-28 02:26:00,
2013-06-27 19:31:00,64.0,57.5,29.80,SW,225,8.6,13.8,80,0.00,,,0.00,Rainwise IP-100,2013-06-28 02:31:00,
2013-06-27 19:36:00,63.9,57.5,29.79,SSW,202,5.6,13.5,80,0.00,,,0.00,Rainwise IP-100,2013-06-28 02:36:00,
2013-06-27 19:41:00,63.6,57.5,29.80,SW,225,9.3,11.7,81,0.00,,,0.00,Rainwise IP-100,2013-06-28 02:41:00,
2013-06-27 19:46:00,63.1,57.5,29.80,SW,225,7.9,15.4,82,0.00,,,0.00,Rainwise IP-100,2013-06-28 02:46:00,
2013-06-27 19:51:00,62.9,57.5,29.80,SSW,202,8.2,12.1,83,0.00,,,0.00,Rainwise IP-100,2013-06-28 02:51:00,
2013-06-27 19:56:00,63.0,57.5,29.79,SW,225,8.4,12.4,83,0.00,,,0.00,Rainwise IP-100,2013-06-28 02:56:00,
2013-06-27 20:01:00,62.8,57.5,29.80,WSW,247,5.4,12.4,83,0.00,,,0.00,Rainwise IP-100,2013-06-28 03:01:00,
2013-06-27 20:06:00,62.4,57.5,29.80,SW,225,4.4,12.6,84,0.00,,,0.00,Rainwise IP-100,2013-06-28 03:06:00,
2013-06-27 20:11:00,62.1,57.5,29.80,SSW,202,6.1,10.5,85,0.00,,,0.00,Rainwise IP-100,2013-06-28 03:11:00,
2013-06-27 20:16:00,62.0,57.5,29.80,WSW,247,4.4,11.4,85,0.00,,,0.00,Rainwise IP-100,2013-06-28 03:16:00,
2013-06-27 20:21:00,61.8,57.5,29.80,SW,225,4.0,10.7,86,0.00,,,0.00,Rainwise IP-100,2013-06-28 03:21:00,
2013-06-27 20:26:00,61.4,57.0,29.80,SW,225,7.2,11.9,86,0.00,,,0.00,Rainwise IP-100,2013-06-28 03:26:00,
2013-06-27 20:31:00,61.1,57.0,29.80,WSW,247,5.4,11.7,87,0.00,,,0.00,Rainwise IP-100,2013-06-28 03:31:00,
2013-06-27 20:36:00,60.8,57.5,29.80,SW,225,5.8,8.9,88,0.00,,,0.00,Rainwise IP-100,2013-06-28 03:36:00,
2013-06-27 20:41:00,60.7,57.0,29.80,SSW,202,5.8,13.3,88,0.00,,,0.00,Rainwise IP-100,2013-06-28 03:41:00,
2013-06-27 20:46:00,60.7,57.0,29.80,SW,225,3.5,11.4,89,0.00,,,0.00,Rainwise IP-100,2013-06-28 03:46:00,
2013-06-27 20:51:00,60.6,57.0,29.80,WSW,247,4.2,11.9,89,0.00,,,0.00,Rainwise IP-100,2013-06-28 03:51:00,
2013-06-27 20:56:00,60.4,57.0,29.80,SW,225,8.6,11.4,89,0.00,,,0.00,Rainwise IP-100,2013-06-28 03:56:00,
2013-06-27 21:01:00,60.3,57.5,29.80,SW,225,5.4,9.8,90,0.00,,,0.00,Rainwise IP-100,2013-06-28 04:01:00,
2013-06-27 21:06:00,60.2,57.0,29.80,SW,225,5.4,10.0,90,0.00,,,0.00,Rainwise IP-100,2013-06-28 04:06:00,
2013-06-27 21:11:00,60.0,57.0,29.80,SW,225,2.3,9.8,90,0.00,,,0.00,Rainwise IP-100,2013-06-28 04:11:00,
2013-06-27 21:16:00,59.9,57.0,29.80,SW,225,8.9,11.9,90,0.00,,,0.00,Rainwise IP-100,2013-06-28 04:16:00,
2013-06-27 21:21:00,59.8,57.0,29.80,WSW,247,3.0,11.0,91,0.00,,,0.00,Rainwise IP-100,2013-06-28 04:21:00,
2013-06-27 21:26:00,59.6,56.5,29.81,WSW,247,7.0,11.0,91,0.00,,,0.00,Rainwise IP-100,2013-06-28 04:26:00,
2013-06-27 21:31:00,59.4,57.0,29.81,South,180,9.6,10.0,92,0.00,,,0.00,Rainwise IP-100,2013-06-28 04:31:00,
2013-06-27 21:36:00,59.3,57.0,29.81,SSW,202,4.9,10.7,92,0.00,,,0.00,Rainwise IP-100,2013-06-28 04:36:00,
2013-06-27 21:41:00,59.1,56.5,29.81,WSW,247,7.0,11.4,92,0.00,,,0.00,Rainwise IP-100,2013-06-28 04:41:00,
2013-06-27 21:46:00,58.9,57.0,29.81,SSW,202,1.6,11.7,93,0.00,,,0.00,Rainwise IP-100,2013-06-28 04:46:00,
2013-06-27 21:51:00,58.9,57.0,29.81,SSW,202,5.4,9.1,93,0.00,,,0.00,Rainwise IP-100,2013-06-28 04:51:00,
2013-06-27 21:56:00,58.9,57.0,29.80,SW,225,2.3,9.6,94,0.00,,,0.00,Rainwise IP-100,2013-06-28 04:56:00,
2013-06-27 22:00:00,58.9,57.0,29.80,SW,225,5.4,11.4,94,0.00,,,0.00,Rainwise IP-100,2013-06-28 05:00:00,
2013-06-27 22:05:00,58.8,57.0,29.81,SW,225,7.0,12.8,94,0.00,,,0.00,Rainwise IP-100,2013-06-28 05:05:00,
2013-06-27 22:10:00,58.7,57.0,29.81,SSW,202,6.5,9.8,94,0.00,,,0.00,Rainwise IP-100,2013-06-28 05:10:00,
2013-06-27 22:15:00,58.7,57.0,29.81,SSW,202,3.0,10.0,94,0.00,,,0.00,Rainwise IP-100,2013-06-28 05:15:00,
2013-06-27 22:20:00,58.8,57.0,29.81,WSW,247,5.8,8.2,94,0.00,,,0.00,Rainwise IP-100,2013-06-28 05:20:00,
2013-06-27 22:25:00,58.8,57.0,29.81,SSW,202,4.4,10.3,94,0.00,,,0.00,Rainwise IP-100,2013-06-28 05:25:00,
2013-06-27 22:30:00,58.8,57.0,29.81,WSW,247,4.7,8.6,94,0.00,,,0.00,Rainwise IP-100,2013-06-28 05:30:00,
2013-06-27 22:35:00,58.8,57.0,29.81,SW,225,4.9,7.7,94,0.00,,,0.00,Rainwise IP-100,2013-06-28 05:35:00,
2013-06-27 22:40:00,58.8,57.0,29.81,SSW,202,5.6,11.0,94,0.00,,,0.00,Rainwise IP-100,2013-06-28 05:40:00,
2013-06-27 22:45:00,58.8,57.0,29.81,SW,225,6.1,9.3,94,0.00,,,0.00,Rainwise IP-100,2013-06-28 05:45:00,
2013-06-27 22:50:00,58.9,57.0,29.82,SW,225,5.1,10.0,94,0.00,,,0.00,Rainwise IP-100,2013-06-28 05:50:00,
2013-06-27 22:55:00,58.9,57.0,29.81,WSW,247,2.8,8.4,94,0.00,,,0.00,Rainwise IP-100,2013-06-28 05:55:00,
2013-06-27 23:00:00,58.9,57.0,29.81,SW,225,6.8,10.3,94,0.00,,,0.00,Rainwise IP-100,2013-06-28 06:00:00,
2013-06-27 23:05:00,58.8,57.0,29.81,SW,225,8.4,8.6,94,0.00,,,0.00,Rainwise IP-100,2013-06-28 06:05:00,
2013-06-27 23:10:00,58.7,57.0,29.81,SW,225,2.1,10.7,94,0.00,,,0.00,Rainwise IP-100,2013-06-28 06:10:00,
2013-06-27 23:15:00,58.6,57.0,29.81,SW,225,5.4,11.0,94,0.00,,,0.00,Rainwise IP-100,2013-06-28 06:15:00,
2013-06-27 23:20:00,58.5,57.5,29.81,South,180,2.1,10.5,95,0.00,,,0.00,Rainwise IP-100,2013-06-28 06:20:00,
2013-06-27 23:25:00,58.3,57.0,29.81,SW,225,5.8,11.4,95,0.00,,,0.00,Rainwise IP-100,2013-06-28 06:25:00,
2013-06-27 23:30:00,58.2,57.0,29.81,WSW,247,6.5,10.5,95,0.00,,,0.00,Rainwise IP-100,2013-06-28 06:30:00,
2013-06-27 23:35:00,58.2,57.0,29.81,WSW,247,6.8,10.7,95,0.00,,,0.00,Rainwise IP-100,2013-06-28 06:35:00,
2013-06-27 23:40:00,58.1,57.0,29.81,SW,225,8.4,11.4,95,0.00,,,0.00,Rainwise IP-100,2013-06-28 06:40:00,
2013-06-27 23:45:00,58.1,57.0,29.81,West,270,3.0,11.9,95,0.00,,,0.00,Rainwise IP-100,2013-06-28 06:45:00,
2013-06-27 23:50:00,58.1,57.0,29.80,SW,225,4.2,8.2,96,0.00,,,0.00,Rainwise IP-100,2013-06-28 06:50:00,
2013-06-27 23:55:00,58.1,57.0,29.81,WSW,247,5.8,8.2,96,0.00,,,0.00,Rainwise IP-100,2013-06-28 06:55:00,